Weather History for Harbor Springs, MI

Change the Weather History Date:

Saturday, July 13, 2013

  Actual Average (KPLN) Record (KPLN)
Temperature  
Mean Temperature 70 °F -  
Max Temperature 80 °F 80 °F 93 °F (2005)
Min Temperature 60 °F 54 °F 41 °F (1955)
Cooling Degree Days 5    
Growing Degree Days 20 (Base 50)    
Moisture  
Dew Point 58 °F    
Average Humidity 65    
Maximum Humidity 81    
Minimum Humidity 45    
Precipitation  
Precipitation 0.00 in - - ()
Sea Level Pressure  
Sea Level Pressure 30.18 in    
Wind  
Wind Speed 4 mph (SW)    
Max Wind Speed 9 mph    
Max Gust Speed -    
Visibility 10 miles    
Events      
Averages and records for this station are not official NWS values.
T = Trace of Precipitation, MM = Missing Value Source: NWS Daily Summary

Daily Weather History Graph

Daily Weather History Graph

Search for Another Location

Airport:

Trip Planner

Search our weather history database for the weather conditions in past years. The results will help you decide how hot, cold, wet, or windy it might be!

Date:

Astronomy

Jul. 13, 2013 Rise Set
Actual Time 6:04 AM EDT 9:26 PM EDT
Civil Twilight 5:27 AM EDT 10:02 PM EDT
Nautical Twilight 4:39 AM EDT 10:50 PM EDT
Astronomical Twilight 3:38 AM EDT 11:50 PM EDT
Moon 11:37 AM EDT (7/13) 11:46 PM EDT (7/13)
Length of Visible Light 16h 35m
Length of Day
15h 22m
Waxing Crescent, 25% of the Moon is Illuminated
Jul 13
Waxing Crescent
Jul 15
First Quarter
Jul 22
Full
Jul 29
Last Quarter
Aug 6
New

Hourly Weather History & Observations

Time (EDT) Temp. Heat Index Dew Point Humidity Pressure Visibility Wind Dir Wind Speed Gust Speed Precip Events Conditions
12:15 AM 63.0 °F - 55.9 °F 78% 30.13 in 10.0 mi ENE 6.9 mph - N/A   Clear
12:34 AM 63.7 °F - 56.3 °F 77% 30.12 in 10.0 mi NE 5.8 mph - N/A   Clear
12:55 AM 63.3 °F - 55.6 °F 76% 30.13 in 10.0 mi ENE 4.6 mph - N/A   Clear
1:15 AM 65.1 °F - 55.6 °F 71% 30.12 in 10.0 mi Calm Calm - N/A   Clear
1:34 AM 61.3 °F - 54.5 °F 78% 30.14 in 10.0 mi Calm Calm - N/A   Clear
1:55 AM 68.0 °F - 55.6 °F 64% 30.14 in 10.0 mi South 3.5 mph - N/A   Clear
2:15 AM 68.0 °F - 54.7 °F 62% 30.13 in 10.0 mi Calm Calm - N/A   Clear
2:35 AM 61.3 °F - 53.8 °F 76% 30.14 in 10.0 mi Calm Calm - N/A   Clear
2:55 AM 60.4 °F - 53.1 °F 77% 30.14 in 10.0 mi Calm Calm - N/A   Clear
3:15 AM 61.2 °F - 52.9 °F 74% 30.14 in 10.0 mi Calm Calm - N/A   Clear
3:35 AM 64.9 °F - 54.3 °F 68% 30.15 in 10.0 mi South 4.6 mph - N/A   Clear
3:55 AM 65.3 °F - 54.3 °F 68% 30.15 in 10.0 mi South 3.5 mph - N/A   Clear
4:15 AM 64.9 °F - 54.9 °F 70% 30.16 in 10.0 mi SW 5.8 mph - N/A   Clear
4:35 AM 63.0 °F - 53.8 °F 72% 30.16 in 10.0 mi Calm Calm - N/A   Clear
4:55 AM 60.3 °F - 53.6 °F 79% 30.16 in 10.0 mi NW 3.5 mph - N/A   Clear
5:15 AM 61.9 °F - 54.3 °F 76% 30.17 in 10.0 mi WSW 4.6 mph - N/A   Clear
5:35 AM 62.6 °F - 54.7 °F 75% 30.17 in 10.0 mi Calm Calm - N/A   Clear
5:55 AM 62.6 °F - 54.7 °F 75% 30.17 in 10.0 mi Calm Calm - N/A   Clear
6:15 AM 64.8 °F - 55.9 °F 73% 30.16 in 10.0 mi Calm Calm - N/A   Clear
6:35 AM 62.8 °F - 55.4 °F 77% 30.16 in 10.0 mi South 6.9 mph - N/A   Clear
6:55 AM 64.9 °F - 57.6 °F 77% 30.17 in 10.0 mi SSW 3.5 mph - N/A   Clear
7:14 AM 65.3 °F - 58.3 °F 78% 30.17 in 10.0 mi South 4.6 mph - N/A   Clear
7:35 AM 65.3 °F - 58.3 °F 78% 30.17 in 10.0 mi SSW 3.5 mph - N/A   Clear
7:55 AM 68.0 °F - 60.1 °F 76% 30.18 in 10.0 mi West 3.5 mph - N/A   Clear
8:14 AM 68.0 °F - 59.9 °F 75% 30.20 in 10.0 mi WNW 4.6 mph - N/A   Clear
8:35 AM 68.0 °F - 59.9 °F 75% 30.21 in 10.0 mi Calm Calm - N/A   Clear
8:55 AM 68.0 °F - 59.5 °F 74% 30.21 in 10.0 mi Calm Calm - N/A   Clear
9:14 AM 69.8 °F - 60.6 °F 73% 30.21 in 10.0 mi Calm Calm - N/A   Clear
9:35 AM 72.9 °F - 62.2 °F 69% 30.21 in 10.0 mi Calm Calm - N/A   Clear
9:55 AM 72.9 °F - 61.2 °F 67% 30.20 in 10.0 mi SSW 4.6 mph - N/A   Clear
10:14 AM 73.2 °F - 60.6 °F 65% 30.19 in 10.0 mi Calm Calm - N/A   Clear
10:35 AM 75.4 °F - 61.3 °F 62% 30.18 in 10.0 mi SW 4.6 mph - N/A   Clear
10:55 AM 75.4 °F - 60.1 °F 59% 30.19 in 10.0 mi SW 8.1 mph - N/A   Clear
11:14 AM 76.6 °F - 60.1 °F 56% 30.19 in 10.0 mi SW 5.8 mph - N/A   Clear
11:35 AM 77.9 °F - 60.6 °F 55% 30.20 in 10.0 mi WSW 4.6 mph - N/A   Clear
11:55 AM 77.9 °F - 58.8 °F 52% 30.20 in 10.0 mi SW 5.8 mph - N/A   Clear
12:14 PM 77.9 °F - 58.8 °F 52% 30.20 in 10.0 mi WSW 4.6 mph - N/A   Clear
12:35 PM 78.3 °F - 58.8 °F 51% 30.20 in 10.0 mi WSW 5.8 mph - N/A   Clear
12:55 PM 77.9 °F - 59.2 °F 52% 30.20 in 10.0 mi SW 6.9 mph - N/A   Clear
1:14 PM 79.2 °F - 57.4 °F 47% 30.20 in 10.0 mi WSW 6.9 mph - N/A   Clear
1:35 PM 80.6 °F 80.8 °F 57.2 °F 45% 30.20 in 10.0 mi SW 6.9 mph - N/A   Clear
1:55 PM 79.0 °F - 58.3 °F 49% 30.20 in 10.0 mi WSW 8.1 mph - N/A   Clear
2:15 PM 78.8 °F - 58.6 °F 50% 30.20 in 10.0 mi WSW 9.2 mph - N/A   Clear
2:35 PM 78.4 °F - 58.5 °F 50% 30.20 in 10.0 mi SW 9.2 mph - N/A   Clear
2:54 PM 77.9 °F - 58.1 °F 50% 30.19 in 10.0 mi WSW 8.1 mph - N/A   Clear
3:15 PM 77.9 °F - 57.9 °F 50% 30.19 in 10.0 mi WSW 8.1 mph - N/A   Clear
3:35 PM 79.2 °F - 57.7 °F 48% 30.19 in 10.0 mi WSW 6.9 mph - N/A   Clear
3:54 PM 79.3 °F - 58.5 °F 49% 30.18 in 10.0 mi WSW 6.9 mph - N/A   Clear
4:15 PM 78.6 °F - 58.3 °F 50% 30.18 in 10.0 mi WSW 8.1 mph - N/A   Clear
4:35 PM 77.9 °F - 58.5 °F 51% 30.18 in 10.0 mi WSW 8.1 mph - N/A   Clear
4:54 PM 77.9 °F - 58.8 °F 52% 30.18 in 10.0 mi WSW 6.9 mph - N/A   Clear
5:15 PM 77.9 °F - 57.9 °F 50% 30.17 in 10.0 mi WSW 8.1 mph - N/A   Clear
5:35 PM 77.9 °F - 57.2 °F 49% 30.18 in 10.0 mi WSW 5.8 mph - N/A   Clear
5:54 PM 77.9 °F - 57.2 °F 49% 30.18 in 10.0 mi WSW 6.9 mph - N/A   Clear
6:15 PM 76.5 °F - 55.8 °F 49% 30.17 in 10.0 mi WSW 6.9 mph - N/A   Clear
6:34 PM 74.8 °F - 61.2 °F 62% 30.18 in 10.0 mi SW 5.8 mph - N/A   Clear
6:55 PM 72.9 °F - 60.3 °F 65% 30.18 in 10.0 mi SW 4.6 mph - N/A   Clear
7:15 PM 72.9 °F - 59.7 °F 63% 30.18 in 10.0 mi SW 4.6 mph - N/A   Clear
7:34 PM 72.9 °F - 59.9 °F 64% 30.18 in 10.0 mi SW 4.6 mph - N/A   Clear
7:55 PM 72.9 °F - 61.2 °F 67% 30.18 in 10.0 mi Calm Calm - N/A   Clear
8:15 PM 72.9 °F - 63.3 °F 72% 30.18 in 10.0 mi Calm Calm - N/A   Clear
8:34 PM 72.9 °F - 61.3 °F 67% 30.18 in 10.0 mi Calm Calm - N/A   Clear
8:55 PM 72.9 °F - 61.2 °F 67% 30.18 in 10.0 mi Calm Calm - N/A   Clear
9:15 PM 70.3 °F - 59.0 °F 67% 30.18 in 10.0 mi Calm Calm - N/A   Clear
9:34 PM 68.0 °F - 59.0 °F 73% 30.19 in 10.0 mi Calm Calm - N/A   Clear
9:55 PM 68.0 °F - 57.9 °F 70% 30.19 in 10.0 mi Calm Calm - N/A   Clear
10:15 PM 68.0 °F - 58.3 °F 71% 30.20 in 10.0 mi Calm Calm - N/A   Clear
10:34 PM 68.0 °F - 58.1 °F 71% 30.20 in 10.0 mi Calm Calm - N/A   Clear
10:55 PM 68.0 °F - 57.9 °F 70% 30.21 in 10.0 mi Calm Calm - N/A   Clear
11:15 PM 67.5 °F - 58.8 °F 74% 30.20 in 10.0 mi Calm Calm - N/A   Clear
11:34 PM 63.9 °F - 57.2 °F 79% 30.21 in 10.0 mi Calm Calm - N/A   Clear
11:55 PM 62.8 °F - 56.8 °F 81% 30.21 in 10.0 mi Calm Calm - N/A   Clear